Time,TemperatureF,DewpointF,PressureIn,WindDirection,WindDirectionDegrees,WindSpeedMPH,WindSpeedGustMPH,Humidity,HourlyPrecipIn,Conditions,Clouds,dailyrainin,SoftwareType,DateUTC
2013-02-25 00:02:00,26.0,24.0,30.14,SE,128,0.0,0.0,91,0.00,,,0.00,,2013-02-25 06:02:00,
2013-02-25 00:11:00,26.0,24.0,30.14,SE,128,0.0,0.0,91,0.00,,,0.00,,2013-02-25 06:11:00,
2013-02-25 00:21:00,26.0,23.0,30.13,SE,128,0.0,0.0,90,0.00,,,0.00,,2013-02-25 06:21:00,
2013-02-25 00:32:00,26.0,23.0,30.13,SE,128,0.0,1.0,90,0.00,,,0.00,,2013-02-25 06:32:00,
2013-02-25 00:42:00,26.0,23.0,30.13,SE,128,0.0,1.0,90,0.00,,,0.00,,2013-02-25 06:42:00,
2013-02-25 00:51:00,25.0,22.0,30.13,SE,128,0.0,1.0,90,0.00,,,0.00,,2013-02-25 06:51:00,
2013-02-25 01:01:00,25.0,22.0,30.13,SE,128,0.0,1.0,90,0.00,,,0.00,,2013-02-25 07:01:00,
2013-02-25 01:11:00,24.0,22.0,30.13,SE,128,0.0,0.0,90,0.00,,,0.00,,2013-02-25 07:11:00,
2013-02-25 01:21:00,24.0,22.0,30.13,SE,128,0.0,0.0,90,0.00,,,0.00,,2013-02-25 07:21:00,
2013-02-25 01:31:00,25.0,23.0,30.13,SE,128,0.0,2.0,91,0.00,,,0.00,,2013-02-25 07:31:00,
2013-02-25 01:41:00,25.0,23.0,30.13,SE,128,0.0,2.0,91,0.00,,,0.00,,2013-02-25 07:41:00,
2013-02-25 01:52:00,25.0,23.0,30.14,SE,128,0.0,0.0,91,0.00,,,0.00,,2013-02-25 07:52:00,
2013-02-25 02:01:00,25.0,23.0,30.13,SE,128,0.0,0.0,92,0.00,,,0.00,,2013-02-25 08:01:00,
2013-02-25 02:11:00,25.0,23.0,30.13,SE,128,0.0,0.0,92,0.00,,,0.00,,2013-02-25 08:11:00,
2013-02-25 02:21:00,25.0,22.0,30.14,SE,128,0.0,0.0,90,0.00,,,0.00,,2013-02-25 08:21:00,
2013-02-25 02:31:00,24.0,22.0,30.13,SE,128,0.0,0.0,91,0.00,,,0.00,,2013-02-25 08:31:00,
2013-02-25 02:41:00,24.0,22.0,30.13,SE,128,0.0,0.0,91,0.00,,,0.00,,2013-02-25 08:41:00,
2013-02-25 02:52:00,24.0,22.0,30.13,SE,128,0.0,0.0,91,0.00,,,0.00,,2013-02-25 08:52:00,
2013-02-25 03:01:00,24.0,22.0,30.14,SE,128,0.0,0.0,92,0.00,,,0.00,,2013-02-25 09:01:00,
2013-02-25 03:12:00,24.0,22.0,30.14,SE,128,0.0,0.0,92,0.00,,,0.00,,2013-02-25 09:12:00,
2013-02-25 03:21:00,25.0,22.0,30.13,SE,128,0.0,1.0,90,0.00,,,0.00,,2013-02-25 09:21:00,
2013-02-25 03:31:00,25.0,23.0,30.13,SE,128,0.0,1.0,91,0.00,,,0.00,,2013-02-25 09:31:00,
2013-02-25 03:41:00,25.0,23.0,30.13,SE,128,0.0,1.0,91,0.00,,,0.00,,2013-02-25 09:41:00,
2013-02-25 03:52:00,25.0,22.0,30.13,SE,128,0.0,2.0,90,0.00,,,0.00,,2013-02-25 09:52:00,
2013-02-25 04:01:00,24.0,21.0,30.13,SE,128,0.0,0.0,89,0.00,,,0.00,,2013-02-25 10:01:00,
2013-02-25 04:11:00,24.0,21.0,30.13,SE,128,0.0,0.0,89,0.00,,,0.00,,2013-02-25 10:11:00,
2013-02-25 04:21:00,24.0,22.0,30.12,SE,128,0.0,1.0,90,0.00,,,0.00,,2013-02-25 10:21:00,
2013-02-25 04:31:00,24.0,22.0,30.12,SE,128,0.0,1.0,91,0.00,,,0.00,,2013-02-25 10:31:00,
2013-02-25 04:42:00,24.0,22.0,30.12,SE,128,0.0,1.0,91,0.00,,,0.00,,2013-02-25 10:42:00,
2013-02-25 04:52:00,24.0,22.0,30.14,SE,128,0.0,1.0,90,0.00,,,0.00,,2013-02-25 10:52:00,
2013-02-25 05:01:00,24.0,22.0,30.14,SE,128,0.0,0.0,91,0.00,,,0.00,,2013-02-25 11:01:00,
2013-02-25 05:11:00,24.0,22.0,30.14,SE,128,0.0,0.0,91,0.00,,,0.00,,2013-02-25 11:11:00,
2013-02-25 05:21:00,24.0,22.0,30.15,SE,128,0.0,0.0,90,0.00,,,0.00,,2013-02-25 11:21:00,
2013-02-25 05:32:00,24.0,22.0,30.15,SE,128,0.0,0.0,90,0.00,,,0.00,,2013-02-25 11:32:00,
2013-02-25 05:42:00,24.0,22.0,30.15,SE,128,0.0,0.0,90,0.00,,,0.00,,2013-02-25 11:42:00,
2013-02-25 05:52:00,23.0,21.0,30.15,SE,128,0.0,1.0,90,0.00,,,0.00,,2013-02-25 11:52:00,
2013-02-25 06:02:00,23.0,21.0,30.15,SE,128,0.0,1.0,90,0.00,,,0.00,,2013-02-25 12:02:00,
2013-02-25 06:11:00,23.0,21.0,30.15,SE,128,0.0,1.0,90,0.00,,,0.00,,2013-02-25 12:11:00,
2013-02-25 06:21:00,23.0,21.0,30.14,ENE,68,1.0,3.0,91,0.00,,,0.00,,2013-02-25 12:21:00,
2013-02-25 06:32:00,23.0,21.0,30.13,ENE,69,1.0,3.0,91,0.00,,,0.00,,2013-02-25 12:32:00,
2013-02-25 06:42:00,23.0,21.0,30.13,ENE,69,1.0,3.0,91,0.00,,,0.00,,2013-02-25 12:42:00,
2013-02-25 06:55:00,24.0,22.0,30.13,ENE,72,2.0,4.0,91,0.00,,,0.00,,2013-02-25 12:55:00,
2013-02-25 07:02:00,24.0,22.0,30.13,East,80,1.0,3.0,90,0.00,,,0.00,,2013-02-25 13:02:00,
2013-02-25 07:12:00,24.0,22.0,30.13,East,80,1.0,3.0,90,0.00,,,0.00,,2013-02-25 13:12:00,
2013-02-25 07:22:00,24.0,22.0,30.13,East,94,2.0,3.0,90,0.00,,,0.00,,2013-02-25 13:22:00,
2013-02-25 07:32:00,26.0,23.0,30.12,ESE,103,3.0,6.0,90,0.00,,,0.00,,2013-02-25 13:32:00,
2013-02-25 07:42:00,26.0,23.0,30.12,ESE,103,3.0,6.0,90,0.00,,,0.00,,2013-02-25 13:42:00,
2013-02-25 07:52:00,27.0,24.0,30.11,ESE,105,4.0,7.0,89,0.00,,,0.00,,2013-02-25 13:52:00,
2013-02-25 08:03:00,28.0,25.0,30.12,ESE,108,2.0,7.0,88,0.00,,,0.00,,2013-02-25 14:03:00,
2013-02-25 08:17:00,28.0,25.0,30.12,ESE,108,2.0,7.0,88,0.00,,,0.00,,2013-02-25 14:17:00,
2013-02-25 08:32:00,31.0,27.0,30.12,ESE,102,4.0,7.0,86,0.01,,,0.01,,2013-02-25 14:32:00,
2013-02-25 08:42:00,31.0,27.0,30.12,ESE,102,4.0,7.0,86,0.01,,,0.01,,2013-02-25 14:42:00,
2013-02-25 08:52:00,32.0,28.0,30.12,ESE,107,4.0,7.0,85,0.01,,,0.01,,2013-02-25 14:52:00,
2013-02-25 09:02:00,32.0,28.0,30.12,ESE,104,4.0,7.0,85,0.01,,,0.01,,2013-02-25 15:02:00,
2013-02-25 09:11:00,32.0,28.0,30.12,ESE,104,4.0,7.0,85,0.01,,,0.01,,2013-02-25 15:11:00,
2013-02-25 09:21:00,33.0,29.0,30.12,East,88,5.0,7.0,85,0.01,,,0.01,,2013-02-25 15:21:00,
2013-02-25 09:32:00,34.0,29.0,30.11,East,101,5.0,9.0,83,0.00,,,0.01,,2013-02-25 15:32:00,
2013-02-25 09:41:00,34.0,29.0,30.11,East,101,5.0,9.0,83,0.00,,,0.01,,2013-02-25 15:41:00,
2013-02-25 09:52:00,35.0,31.0,30.10,ESE,103,6.0,9.0,84,0.00,,,0.01,,2013-02-25 15:52:00,
2013-02-25 10:02:00,36.0,31.0,30.10,ESE,109,5.0,9.0,83,0.00,,,0.01,,2013-02-25 16:02:00,
2013-02-25 10:11:00,36.0,31.0,30.10,ESE,109,5.0,9.0,83,0.00,,,0.01,,2013-02-25 16:11:00,
2013-02-25 10:21:00,37.0,31.0,30.10,ESE,109,8.0,12.0,79,0.00,,,0.01,,2013-02-25 16:21:00,
2013-02-25 10:32:00,37.0,30.0,30.11,ESE,107,9.0,12.0,76,0.00,,,0.01,,2013-02-25 16:32:00,
2013-02-25 10:42:00,37.0,30.0,30.11,ESE,107,9.0,12.0,76,0.00,,,0.01,,2013-02-25 16:42:00,
2013-02-25 10:52:00,37.0,30.0,30.11,ESE,107,9.0,12.0,76,0.00,,,0.01,,2013-02-25 16:52:00,
2013-02-25 11:01:00,39.0,33.0,30.12,East,93,7.0,11.0,78,0.00,,,0.01,,2013-02-25 17:01:00,
2013-02-25 11:11:00,39.0,33.0,30.12,East,93,7.0,11.0,78,0.00,,,0.01,,2013-02-25 17:11:00,
2013-02-25 11:21:00,39.0,32.0,30.12,ESE,103,6.0,11.0,76,0.00,,,0.01,,2013-02-25 17:21:00,
2013-02-25 11:32:00,40.0,33.0,30.12,East,95,6.0,11.0,75,0.00,,,0.01,,2013-02-25 17:32:00,
2013-02-25 11:41:00,40.0,33.0,30.12,East,95,6.0,11.0,75,0.00,,,0.01,,2013-02-25 17:41:00,
2013-02-25 11:52:00,40.0,32.0,30.11,East,100,7.0,11.0,74,0.00,,,0.01,,2013-02-25 17:52:00,
2013-02-25 12:01:00,40.0,33.0,30.11,East,99,6.0,10.0,75,0.00,,,0.01,,2013-02-25 18:01:00,
2013-02-25 12:12:00,40.0,33.0,30.11,East,99,6.0,10.0,75,0.00,,,0.01,,2013-02-25 18:12:00,
2013-02-25 12:21:00,41.0,34.0,30.10,East,88,7.0,10.0,76,0.00,,,0.01,,2013-02-25 18:21:00,
2013-02-25 12:32:00,41.0,33.0,30.10,East,82,5.0,9.0,72,0.00,,,0.01,,2013-02-25 18:32:00,
2013-02-25 12:41:00,41.0,33.0,30.10,East,82,5.0,9.0,72,0.00,,,0.01,,2013-02-25 18:41:00,
2013-02-25 12:52:00,41.0,34.0,30.09,ESE,113,5.0,10.0,75,0.00,,,0.01,,2013-02-25 18:52:00,
2013-02-25 13:01:00,41.0,34.0,30.09,ESE,113,5.0,10.0,75,0.00,,,0.01,,2013-02-25 19:01:00,
2013-02-25 13:11:00,41.0,34.0,30.09,ESE,113,5.0,10.0,75,0.00,,,0.01,,2013-02-25 19:11:00,
2013-02-25 13:21:00,42.0,34.0,30.06,East,80,9.0,12.0,74,0.00,,,0.01,,2013-02-25 19:21:00,
2013-02-25 13:32:00,42.0,34.0,30.06,ENE,65,6.0,10.0,73,0.00,,,0.01,,2013-02-25 19:32:00,
2013-02-25 13:42:00,42.0,34.0,30.06,ENE,65,6.0,10.0,73,0.00,,,0.01,,2013-02-25 19:42:00,
2013-02-25 13:52:00,41.0,34.0,30.06,East,86,8.0,12.0,76,0.00,,,0.01,,2013-02-25 19:52:00,
2013-02-25 14:01:00,42.0,33.0,30.06,East,91,6.0,9.0,71,0.00,,,0.01,,2013-02-25 20:01:00,
2013-02-25 14:11:00,42.0,33.0,30.06,East,91,6.0,9.0,71,0.00,,,0.01,,2013-02-25 20:11:00,
2013-02-25 14:21:00,43.0,34.0,30.06,East,96,6.0,10.0,71,0.00,,,0.01,,2013-02-25 20:21:00,
2013-02-25 14:31:00,42.0,33.0,30.05,NE,51,6.0,11.0,71,0.00,,,0.01,,2013-02-25 20:31:00,
2013-02-25 14:42:00,42.0,33.0,30.05,NE,51,6.0,11.0,71,0.00,,,0.01,,2013-02-25 20:42:00,
2013-02-25 14:52:00,43.0,34.0,30.05,NE,51,7.0,12.0,71,0.00,,,0.01,,2013-02-25 20:52:00,
2013-02-25 15:01:00,42.0,34.0,30.03,ENE,72,8.0,11.0,73,0.00,,,0.01,,2013-02-25 21:01:00,
2013-02-25 15:11:00,42.0,34.0,30.03,ENE,72,8.0,11.0,73,0.00,,,0.01,,2013-02-25 21:11:00,
2013-02-25 15:21:00,41.0,33.0,30.03,East,82,8.0,12.0,74,0.00,,,0.01,,2013-02-25 21:21:00,
2013-02-25 15:31:00,41.0,34.0,30.01,East,84,9.0,13.0,75,0.00,,,0.01,,2013-02-25 21:31:00,
2013-02-25 15:42:00,41.0,34.0,30.01,East,84,9.0,13.0,75,0.00,,,0.01,,2013-02-25 21:42:00,
2013-02-25 15:52:00,41.0,34.0,30.00,ENE,66,7.0,12.0,77,0.00,,,0.01,,2013-02-25 21:52:00,
2013-02-25 16:01:00,41.0,34.0,29.99,ENE,65,8.0,11.0,76,0.00,,,0.01,,2013-02-25 22:01:00,
2013-02-25 16:11:00,41.0,34.0,29.99,ENE,65,8.0,11.0,76,0.00,,,0.01,,2013-02-25 22:11:00,
2013-02-25 16:21:00,40.0,33.0,29.99,ENE,61,9.0,13.0,77,0.00,,,0.01,,2013-02-25 22:21:00,
2013-02-25 16:32:00,40.0,33.0,29.99,ENE,76,8.0,13.0,77,0.00,,,0.01,,2013-02-25 22:32:00,
2013-02-25 16:42:00,40.0,33.0,29.99,ENE,76,8.0,13.0,77,0.00,,,0.01,,2013-02-25 22:42:00,
2013-02-25 16:52:00,39.0,33.0,29.99,East,84,7.0,12.0,78,0.00,,,0.01,,2013-02-25 22:52:00,
2013-02-25 17:01:00,39.0,33.0,29.99,ENE,78,7.0,11.0,79,0.00,,,0.01,,2013-02-25 23:01:00,
2013-02-25 17:11:00,39.0,33.0,29.99,ENE,78,7.0,11.0,79,0.00,,,0.01,,2013-02-25 23:11:00,
2013-02-25 17:22:00,38.0,33.0,29.97,ENE,58,7.0,12.0,81,0.00,,,0.01,,2013-02-25 23:22:00,
2013-02-25 17:31:00,37.0,32.0,29.98,NE,49,6.0,11.0,82,0.00,,,0.01,,2013-02-25 23:31:00,
2013-02-25 17:41:00,37.0,32.0,29.98,NE,49,6.0,11.0,82,0.00,,,0.01,,2013-02-25 23:41:00,
2013-02-25 17:52:00,36.0,31.0,29.97,ENE,60,6.0,10.0,82,0.00,,,0.01,,2013-02-25 23:52:00,
2013-02-25 18:01:00,35.0,31.0,29.96,NE,51,8.0,14.0,84,0.00,,,0.01,,2013-02-26 00:01:00,
2013-02-25 18:12:00,35.0,31.0,29.96,NE,51,8.0,14.0,84,0.00,,,0.01,,2013-02-26 00:12:00,
2013-02-25 18:22:00,35.0,31.0,29.96,NE,54,7.0,12.0,84,0.00,,,0.01,,2013-02-26 00:22:00,
2013-02-25 18:32:00,35.0,30.0,29.96,ENE,64,9.0,13.0,83,0.00,,,0.01,,2013-02-26 00:32:00,
2013-02-25 18:42:00,35.0,30.0,29.96,ENE,64,9.0,13.0,83,0.00,,,0.01,,2013-02-26 00:42:00,
2013-02-25 18:52:00,35.0,30.0,29.97,East,82,10.0,14.0,82,0.00,,,0.01,,2013-02-26 00:52:00,
2013-02-25 19:02:00,34.0,29.0,29.95,NE,55,8.0,12.0,83,0.00,,,0.01,,2013-02-26 01:02:00,
2013-02-25 19:11:00,34.0,29.0,29.95,NE,55,8.0,12.0,83,0.00,,,0.01,,2013-02-26 01:11:00,
2013-02-25 19:21:00,33.0,29.0,29.96,ENE,59,4.0,10.0,85,0.00,,,0.01,,2013-02-26 01:21:00,
2013-02-25 19:31:00,33.0,29.0,29.96,ENE,67,6.0,9.0,85,0.00,,,0.01,,2013-02-26 01:31:00,
2013-02-25 19:41:00,33.0,29.0,29.96,ENE,67,6.0,9.0,85,0.00,,,0.01,,2013-02-26 01:41:00,
2013-02-25 19:52:00,34.0,30.0,29.96,ENE,72,8.0,12.0,84,0.00,,,0.01,,2013-02-26 01:52:00,
2013-02-25 20:01:00,34.0,30.0,29.94,NE,51,9.0,12.0,84,0.00,,,0.01,,2013-02-26 02:01:00,
2013-02-25 20:11:00,34.0,30.0,29.94,NE,51,9.0,12.0,84,0.00,,,0.01,,2013-02-26 02:11:00,
2013-02-25 20:21:00,33.0,29.0,29.94,NE,52,8.0,14.0,85,0.00,,,0.01,,2013-02-26 02:21:00,
2013-02-25 20:32:00,34.0,30.0,29.95,ENE,70,8.0,13.0,84,0.00,,,0.01,,2013-02-26 02:32:00,
2013-02-25 20:42:00,34.0,30.0,29.95,ENE,70,8.0,13.0,84,0.00,,,0.01,,2013-02-26 02:42:00,
2013-02-25 20:52:00,34.0,30.0,29.95,NE,45,10.0,15.0,84,0.00,,,0.01,,2013-02-26 02:52:00,
2013-02-25 21:02:00,34.0,29.0,29.95,NE,44,10.0,14.0,83,0.00,,,0.01,,2013-02-26 03:02:00,
2013-02-25 21:11:00,34.0,29.0,29.95,NE,44,10.0,14.0,83,0.00,,,0.01,,2013-02-26 03:11:00,
2013-02-25 21:21:00,34.0,29.0,29.96,ENE,71,9.0,13.0,83,0.00,,,0.01,,2013-02-26 03:21:00,
2013-02-25 21:32:00,33.0,29.0,29.96,ENE,73,6.0,12.0,84,0.00,,,0.01,,2013-02-26 03:32:00,
2013-02-25 21:42:00,33.0,29.0,29.96,ENE,73,6.0,12.0,84,0.00,,,0.01,,2013-02-26 03:42:00,
2013-02-25 21:52:00,33.0,29.0,29.96,ENE,64,7.0,11.0,84,0.00,,,0.01,,2013-02-26 03:52:00,
2013-02-25 22:01:00,33.0,29.0,29.95,NE,47,6.0,12.0,85,0.00,,,0.01,,2013-02-26 04:01:00,
2013-02-25 22:11:00,33.0,29.0,29.95,NE,47,6.0,12.0,85,0.00,,,0.01,,2013-02-26 04:11:00,
2013-02-25 22:21:00,33.0,29.0,29.93,ENE,62,7.0,13.0,85,0.00,,,0.01,,2013-02-26 04:21:00,
2013-02-25 22:32:00,33.0,29.0,29.92,NE,42,10.0,14.0,85,0.00,,,0.01,,2013-02-26 04:32:00,
2013-02-25 22:42:00,33.0,29.0,29.92,NE,42,10.0,14.0,85,0.00,,,0.01,,2013-02-26 04:42:00,
2013-02-25 22:52:00,33.0,29.0,29.90,ENE,60,10.0,15.0,84,0.00,,,0.01,,2013-02-26 04:52:00,
2013-02-25 23:01:00,33.0,29.0,29.90,ENE,73,10.0,16.0,84,0.00,,,0.01,,2013-02-26 05:01:00,
2013-02-25 23:12:00,33.0,29.0,29.90,ENE,73,10.0,16.0,84,0.00,,,0.01,,2013-02-26 05:12:00,
2013-02-25 23:21:00,33.0,29.0,29.88,East,99,10.0,17.0,84,0.00,,,0.01,,2013-02-26 05:21:00,
2013-02-25 23:31:00,33.0,29.0,29.86,ENE,62,11.0,16.0,84,0.00,,,0.01,,2013-02-26 05:31:00,
2013-02-25 23:43:00,33.0,29.0,29.86,ENE,62,11.0,16.0,84,0.00,,,0.01,,2013-02-26 05:43:00,
2013-02-25 23:52:00,33.0,29.0,29.87,ENE,59,11.0,16.0,84,0.00,,,0.01,,2013-02-26 05:52:00,